Location: *
(28.3744°N, 81.5492°W)
Time: 04:04:12
(UTC+00:00)

Cosmos 1452 Rocket - Pass Details

Date: 15 June 2025
Orbit: 763 x 771 km, 74.1° (Epoch: 11 July)

Event Time Altitude Azimuth Distance (km) Brightness Sun altitude
Rises 02:32:25 0° 342° (NNW) 3,238 7.8 -23.4°
Reaches altitude 10° 02:34:48 10° 340° (NNW) 2,310 6.9 -23.8°
Maximum altitude 02:40:02 75° 257° (WSW) 798 3.5 -24.5°
Enters shadow 02:40:57 59° 193° (SSW) 884 3.5 -24.7°
